Flag for Poland Weather past 2 weeks in Dąbrowa Górnicza, Poland

Now
63 °F

Clear.


Feels Like: 63 °F
Forecast: 63 / 74 °F
Wind: 1 mph from North

Location: Katowice Airport

Current Time: Jul 31, 2014 at 4:22:17 AM

Latest Report: Jul 31, 2014 at 4:00 AM


Visibility: 10 mi

Pressure: 29.80 "Hg

Humidity: 94%

Dew point: 61 °F

Location of Dąbrowa GórniczaLocation

Historic Weather in Dąbrowa Górnicza — Graph

°F

Dąbrowa Górnicza temperature yesterday

Maximum temperature yesterday: 82 °F (at 3:00 PM)
Minimum temperature yesterday: 61 °F (at 4:00 AM)
Average temperature yesterday: 72 °F

Past Weeks' High & Low Weather Summary

 TemperatureHumidityPressure
High88 °F (Jul 20, 3:00 PM)100% (Jul 18, 4:00 AM)30.15 "Hg (Jul 18, 4:00 AM)
Low57 °F (Jul 19, 4:00 AM)33% (Jul 20, 4:00 PM)29.77 "Hg (Jul 29, 7:30 PM)
Average71 °F72%29.96 "Hg
* Reported Jul 16 3:00 AM — Jul 31 3:00 AM, Dąbrowa Górnicza, Weather by CustomWeather, © 2014

Note: Actual official high and low records may vary slightly from our data, if they occured in-between our weather recording intervals... More about our weather records

Advertising

Dąbrowa Górnicza weather history for previous 24 hours

 ConditionsComfort  
Time TempWeatherWind HumidityBarometerVisibility
3:00 AM
Jul 31
64 °FClear.No wind88%29.80 "Hg10 mi
2:30 AM64 °FClear.No wind94%29.80 "Hg10 mi
2:00 AM64 °FClear.No wind94%29.80 "Hg10 mi
1:30 AM66 °FClear.No wind88%29.80 "Hg10 mi
1:00 AM68 °FClear.1 mph88%29.80 "Hg10 mi
12:30 AM68 °FClear.No wind88%29.80 "Hg10 mi
12:00 AM68 °FClear.1 mph83%29.80 "Hg10 mi
11:30 PM
Jul 30
68 °FClear.1 mph88%29.80 "Hg10 mi
10:30 PM72 °FClear.No wind78%29.80 "Hg10 mi
10:00 PM72 °FPassing clouds.3 mph78%29.80 "HgN/A
9:30 PM73 °FClear.3 mph74%29.80 "Hg10 mi
9:00 PM75 °FSunny.3 mph69%29.80 "Hg10 mi
8:30 PM75 °FSunny.5 mph65%29.80 "Hg10 mi
8:00 PM77 °FSunny.3 mph61%29.77 "Hg10 mi
7:30 PM77 °FSunny.3 mph61%29.77 "Hg10 mi
7:00 PM79 °FSunny.3 mph58%29.77 "Hg10 mi
6:30 PM79 °FPassing clouds.3 mph58%29.77 "HgN/A
6:00 PM81 °FPassing clouds.5 mph48%29.77 "HgN/A
5:30 PM79 °FPassing clouds.6 mph54%29.80 "HgN/A
5:00 PM79 °FPassing clouds.8 mph54%29.80 "HgN/A
4:30 PM81 °FPassing clouds.8 mph51%29.80 "HgN/A
4:00 PM81 °FPassing clouds.7 mph54%29.80 "HgN/A
3:30 PM81 °FPassing clouds.9 mph51%29.80 "HgN/A
3:00 PM82 °FPassing clouds.9 mph48%29.80 "HgN/A
2:30 PM81 °FPassing clouds.7 mph51%29.80 "HgN/A
2:00 PM81 °FPassing clouds.6 mph51%29.80 "HgN/A
1:30 PM81 °FScattered clouds.5 mph51%29.80 "HgN/A
1:00 PM77 °FScattered clouds.5 mph57%29.80 "HgN/A
12:30 PM79 °FScattered clouds.6 mph54%29.80 "HgN/A
12:00 PM79 °FScattered clouds.7 mph54%29.80 "HgN/A
11:30 AM77 °FPassing clouds.7 mph57%29.80 "HgN/A
11:00 AM77 °FPassing clouds.6 mph61%29.80 "HgN/A
10:30 AM75 °FPassing clouds.6 mph65%29.80 "HgN/A
10:00 AM73 °FPassing clouds.7 mph69%29.80 "HgN/A
9:30 AM72 °FPassing clouds.6 mph73%29.80 "HgN/A
9:00 AM72 °FPassing clouds.5 mph73%29.80 "HgN/A
8:30 AM70 °FPassing clouds.6 mph78%29.80 "HgN/A
8:00 AM72 °FPassing clouds.5 mph73%29.80 "HgN/A
7:30 AM68 °FPassing clouds.3 mph88%29.80 "HgN/A
7:00 AM66 °FClear.3 mph88%29.80 "Hg5 mi
6:30 AM66 °FClear.3 mph88%29.80 "Hg5 mi
6:00 AM64 °FClear.5 mph94%29.80 "Hg5 mi
5:30 AM64 °FFog.5 mph88%29.77 "Hg5 mi
5:00 AM61 °FFog.3 mph94%29.77 "Hg5 mi
4:30 AM63 °FFog.3 mph94%29.77 "Hg4 mi
4:00 AM61 °FPassing clouds.2 mph94%29.77 "Hg5 mi
Weather by CustomWeather, © 2014

See weather overviewHow to use our weather pages